Location: B�rgermoos
(47.6500°N, 9.0667°E)
Time: 05:52:49
(UTC+00:00)

Cosmos 2082 Rocket - Pass Details

Date: 18 September 2020
Orbit: 834 x 853 km, 71.0° (Epoch: 22 October)

Event Time Altitude Azimuth Distance (km) Brightness Sun altitude
Rises 20:39:29 0° 335° (NNW) 3,393 6.3 -30.1°
Reaches altitude 10° 20:42:02 10° 342° (NNW) 2,456 5.3 -30.4°
Enters shadow 20:46:13 40° 20° (NNE) 1,221 3.1 -30.9°
